HELIOS 1B

Last updated on Sat Dec 13 2025 00:02:16 GMT+0000 (Coordinated Universal Time)

1 25977U 99064A 25346.26526384 .00003831 00000+0 43118-3 0 9998 2 25977 98.1750 240.9168 0001744 44.6752 315.4603 14.87280917672268
UTC large
Height (km)
Speed (km/s)
/
Latitude / Longitude
Inclination (degrees)
Orbital Period (minutes)
Azimuth
Elevation
Range (km)
Doppler Factor

Next 0 passes for location: London (51.5072 / 0.1276)

Sorry there are no passes over London.